Aérodrome :
LOGIN :

S'inscrire | Disclaimer

   EN    FR    IT 

 










Légende :    VFR   VFR Marginal   IFR   IFR Intensif   IFR Très Intensif
Visi : 
Plafond : 
>= 8 km
>= 3000ft
5 à 8 km
1000 à 3000 ft
1500m à 5 km
500 à 1000 ft
800 à 1500m
200 à 500 ft
< 800m
< 200 ft
Symboles :   Orages  Brouillard  Fortes neiges  Fortes précipitations  Vent > 20 kt
SIGMETs :   Divers  Orages  Givrage  Turbulence  Onde Orograph.  Cendres Volcan.






- Altitude de l'aérodrome : 1084 ft
- Code IATA : EPL


LFSG - Épinal-Mirecourt

DERNIER METAR :
  • 271300Z AUTO 19010KT 9999 -RA BKN006 OVC013 01/01 Q1015

METARs EXPIRÉS :
  • 271230Z AUTO 19011KT 9000 -SNRA BKN007/// BKN012/// OVC017/// ///TCU 01/00 Q1015
  • 271200Z AUTO 19007KT 6000 -SNRA BKN007/// OVC014/// ///TCU 00/M00 Q1015
  • 271130Z AUTO 20008KT 5000 -SNRA BR OVC007/// ///CB 00/M01 Q1016
  • 271100Z AUTO 20008KT 8000 -RA BKN009 OVC014 00/M01 Q1016
  • 271030Z AUTO 20011KT 9999 OVC013 00/M01 Q1015

TAF N/A



MET'MAP, la Météo Aéronautique d'un coup d'oeil ! - Copyright ORBIFLY Décembre 2007 - Disclaimer

ORBIFLY MET'MAP TEAM :

Programmation & Développement : Alexandra Zaïnal
Sur une idée originale de : Baudouin d'Aumeries
Assistance à la programmation : Marc-Olivier Méhu
Soutien technique & logistique : Manuel Goepfert

Contact : metmap@orbifly.com




SOURCES & CREDITS :

   NOAA